Weather History for KMNH - February, 2013

Change the Weather History Date:

Wednesday, February 20, 2013

  Actual Average (KAPA) Record (KAPA)
Temperature  
Mean Temperature 24 °F -  
Max Temperature 32 °F 43 °F 59 °F (2000)
Min Temperature 17 °F 21 °F 10 °F (2006)
Degree Days  
Heating Degree Days 40    
Moisture  
Dew Point 18 °F    
Average Humidity 83    
Maximum Humidity 100    
Minimum Humidity 59    
Precipitation  
Precipitation 0.04 in - - ()
Sea Level Pressure  
Sea Level Pressure 29.62 in    
Wind  
Wind Speed 5 mph (East)    
Max Wind Speed 16 mph    
Max Gust Speed -    
Visibility 6 miles    
Events Snow    
Averages and records for this station are not official NWS values.
T = Trace of Precipitation, MM = Missing Value Source: NWS Daily Summary

Daily Weather History Graph

Daily Weather History Graph

Search for Another Location

Airport or City:

Trip Planner

Search our weather history database for the weather conditions in past years. The results will help you decide how hot, cold, wet, or windy it might be!

Date:

Astronomy

Feb. 20, 2013 Rise Set
Actual Time 6:43 AM MST 5:41 PM MST
Civil Twilight 6:16 AM MST 6:08 PM MST
Nautical Twilight 5:45 AM MST 6:40 PM MST
Astronomical Twilight 5:14 AM MST 7:11 PM MST
Moon 1:06 PM MST (2/20) 3:04 AM MST (2/20)
Length of Visible Light 11h 52m
Length of Day
10h 58m
Waxing Gibbous, 76% of the Moon is Illuminated
Feb 20
Waxing Gibbous
Feb 25
Full
Mar 4
Last Quarter
Mar 11
New
Mar 19
First Quarter

Hourly Weather History & Observations

Time (MST) Temp. Windchill Dew Point Humidity Pressure Visibility Wind Dir Wind Speed Gust Speed Precip Events Conditions
12:14 AM 21.2 °F 16.4 °F 10.4 °F 63% 29.73 in 10.0 mi North 3.5 mph - N/A   Clear
12:34 AM 23.0 °F 15.8 °F 10.4 °F 59% 29.73 in 10.0 mi North 5.8 mph - N/A   Clear
12:54 AM 23.0 °F 18.4 °F 10.4 °F 59% 29.72 in 10.0 mi NNW 3.5 mph - N/A   Clear
1:14 AM 23.0 °F 18.4 °F 10.4 °F 59% 29.71 in 10.0 mi North 3.5 mph - N/A   Clear
1:34 AM 23.0 °F - 10.4 °F 59% 29.71 in 10.0 mi Calm Calm - N/A   Clear
1:54 AM 21.2 °F - 10.4 °F 63% 29.71 in 10.0 mi Calm Calm - N/A   Clear
2:14 AM 21.2 °F 16.4 °F 10.4 °F 63% 29.71 in 10.0 mi SE 3.5 mph - N/A   Clear
2:34 AM 21.2 °F - 12.2 °F 68% 29.69 in 10.0 mi Calm Calm - N/A   Clear
2:54 AM 23.0 °F 15.8 °F 12.2 °F 63% 29.70 in 10.0 mi SSE 5.8 mph - N/A   Clear
3:14 AM 21.2 °F 14.9 °F 12.2 °F 68% 29.69 in 10.0 mi South 4.6 mph - N/A   Clear
3:34 AM 17.6 °F 10.7 °F 12.2 °F 79% 29.68 in 10.0 mi South 4.6 mph - N/A   Clear
3:54 AM 21.2 °F 12.6 °F 14.0 °F 74% 29.69 in 10.0 mi South 6.9 mph - N/A   Clear
4:14 AM 19.4 °F 10.4 °F 12.2 °F 74% 29.68 in 10.0 mi SSW 6.9 mph - N/A   Clear
4:34 AM 19.4 °F 14.3 °F 12.2 °F 74% 29.68 in 10.0 mi WSW 3.5 mph - N/A   Clear
4:54 AM 17.6 °F 12.3 °F 12.2 °F 79% 29.68 in 10.0 mi West 3.5 mph - N/A   Clear
5:14 AM 19.4 °F - 12.2 °F 74% 29.68 in 10.0 mi Calm Calm - N/A   Clear
5:54 AM 17.6 °F - 12.2 °F 79% 29.68 in 10.0 mi Calm Calm - N/A   Clear
6:14 AM 17.6 °F - 12.2 °F 79% 29.67 in 10.0 mi Calm Calm - N/A   Clear
6:34 AM 17.6 °F - 12.2 °F 79% 29.66 in 10.0 mi Calm Calm - N/A   Clear
6:54 AM 17.6 °F - 12.2 °F 79% 29.67 in 10.0 mi Calm Calm - N/A   Clear
7:14 AM 19.4 °F - 14.0 °F 80% 29.68 in 10.0 mi Calm Calm - N/A   Scattered Clouds
7:34 AM 19.4 °F - 14.0 °F 80% 29.67 in 10.0 mi Calm Calm - N/A   Scattered Clouds
8:14 AM 21.2 °F 11.7 °F 15.8 °F 80% 29.67 in 10.0 mi SSE 8.1 mph - N/A   Scattered Clouds
8:34 AM 23.0 °F 14.7 °F 17.6 °F 80% 29.67 in 10.0 mi South 6.9 mph - N/A   Mostly Cloudy
8:54 AM 24.8 °F 17.9 °F 17.6 °F 74% 29.66 in 10.0 mi SSE 5.8 mph - N/A   Overcast
9:14 AM 26.6 °F 16.2 °F 19.4 °F 74% 29.65 in 10.0 mi SE 11.5 mph - N/A   Overcast
9:34 AM 28.4 °F 18.0 °F 19.4 °F 69% 29.65 in 10.0 mi SSE 12.7 mph - N/A   Overcast
9:54 AM 30.2 °F 20.8 °F 21.2 °F 69% 29.65 in 10.0 mi SSE 11.5 mph - N/A   Mostly Cloudy
10:14 AM 32.0 °F 21.6 °F 21.2 °F 64% 29.65 in 10.0 mi SSE 15.0 mph - N/A   Scattered Clouds
10:34 AM 30.2 °F 19.3 °F 21.2 °F 69% 29.64 in 10.0 mi SSE 15.0 mph - N/A   Scattered Clouds
10:54 AM 28.4 °F 16.6 °F 21.2 °F 74% 29.64 in 10.0 mi SSE 16.1 mph - N/A   Mostly Cloudy
11:14 AM 28.4 °F 17.5 °F 23.0 °F 80% 29.64 in 10.0 mi SE 13.8 mph - N/A   Overcast
11:33 AM 26.6 °F 15.7 °F 23.0 °F 86% 29.64 in 10.0 mi SSE 12.7 mph - N/A   Overcast
11:54 AM 28.4 °F 18.0 °F 23.0 °F 80% 29.63 in 10.0 mi SSE 12.7 mph - N/A   Overcast
12:14 PM 28.4 °F 19.1 °F 23.0 °F 80% 29.61 in 4.0 mi SE 10.4 mph - N/A Snow Light Snow
12:34 PM 28.4 °F 20.4 °F 23.0 °F 80% 29.60 in 1.8 mi SE 8.1 mph - N/A Snow Light Snow
12:54 PM 26.6 °F 20.0 °F 24.8 °F 93% 29.58 in 1.5 mi ESE 5.8 mph - N/A Snow Light Snow
1:14 PM 26.6 °F 20.0 °F 24.8 °F 93% 29.57 in 1.0 mi SE 5.8 mph - N/A Snow Light Snow
1:54 PM 28.4 °F - 26.6 °F 93% 29.55 in 1.5 mi Calm Calm - N/A Snow Light Snow
2:14 PM 28.4 °F - 26.6 °F 93% 29.55 in 2.0 mi Calm Calm - N/A Snow Light Snow
2:34 PM 28.4 °F 23.3 °F 26.6 °F 93% 29.55 in 1.0 mi North 4.6 mph - N/A Snow Light Snow
2:54 PM 28.4 °F 19.7 °F 26.6 °F 93% 29.55 in 1.0 mi East 9.2 mph - 0.01 in Snow Light Snow
3:14 PM 28.4 °F 19.1 °F 26.6 °F 93% 29.55 in 7.0 mi East 10.4 mph - N/A   Overcast
3:34 PM 26.6 °F 15.7 °F 26.6 °F 100% 29.55 in 1.2 mi East 12.7 mph - N/A Snow Light Snow
3:54 PM 26.6 °F 17.5 °F 24.8 °F 93% 29.55 in 1.2 mi ESE 9.2 mph - N/A Snow Light Snow
4:08 PM 26.6 °F 17.5 °F 24.8 °F 93% 29.55 in 4.0 mi SE 9.2 mph - N/A Snow Light Snow
4:32 PM 26.6 °F 19.1 °F 24.8 °F 93% 29.55 in 7.0 mi SE 6.9 mph - N/A   Overcast
4:48 PM 26.6 °F 21.2 °F 24.8 °F 93% 29.55 in 7.0 mi SE 4.6 mph - N/A Snow Light Snow
5:10 PM 26.6 °F - 23.0 °F 86% 29.55 in 3.0 mi Calm Calm - N/A Snow Light Snow
5:28 PM 26.6 °F - 23.0 °F 86% 29.55 in 4.0 mi Calm Calm - N/A Snow Light Snow
5:37 PM 26.6 °F 22.6 °F 23.0 °F 86% 29.55 in 4.0 mi NNE 3.5 mph - N/A Snow Light Snow
6:08 PM 24.8 °F 20.5 °F 24.8 °F 100% 29.57 in 3.0 mi NE 3.5 mph - N/A Snow Light Snow
6:19 PM 24.8 °F 20.5 °F 24.8 °F 100% 29.57 in 1.8 mi NE 3.5 mph - N/A Snow Light Snow
6:49 PM 23.0 °F 18.4 °F 23.0 °F 100% 29.57 in 2.5 mi NNE 3.5 mph - N/A Snow Light Snow
7:07 PM 23.0 °F 17.0 °F 23.0 °F 100% 29.57 in 2.0 mi NNE 4.6 mph - N/A Snow Light Snow
7:30 PM 23.0 °F 17.0 °F 23.0 °F 100% 29.57 in 3.0 mi North 4.6 mph - N/A Snow Light Snow
8:09 PM 23.0 °F 15.8 °F 23.0 °F 100% 29.56 in 1.5 mi North 5.8 mph - N/A Snow Light Snow
8:21 PM 23.0 °F 15.8 °F 23.0 °F 100% 29.57 in 5.0 mi NE 5.8 mph - N/A Snow Light Snow
8:49 PM 21.2 °F 12.6 °F 19.4 °F 93% 29.57 in 2.5 mi NNE 6.9 mph - N/A Snow Light Snow
9:08 PM 19.4 °F 12.8 °F 19.4 °F 100% 29.57 in 0.8 mi NE 4.6 mph - N/A Snow Snow
9:27 PM 19.4 °F 9.5 °F 17.6 °F 93% 29.58 in 1.8 mi NE 8.1 mph - N/A Snow Light Snow
9:42 PM 17.6 °F 9.3 °F 15.8 °F 93% 29.58 in 1.8 mi NE 5.8 mph - N/A Snow Light Snow
10:05 PM 17.6 °F 12.3 °F 15.8 °F 93% 29.59 in 1.5 mi NNE 3.5 mph - N/A Snow Light Snow
10:28 PM 17.6 °F 10.7 °F 14.0 °F 86% 29.58 in 1.0 mi NW 4.6 mph - 0.01 in Snow Snow
10:49 PM 17.6 °F 9.3 °F 14.0 °F 86% 29.59 in 1.8 mi NNW 5.8 mph - 0.02 in Snow Light Snow
11:11 PM 17.6 °F 7.3 °F 15.8 °F 93% 29.58 in 1.5 mi NW 8.1 mph - N/A Snow Light Snow
11:29 PM 17.6 °F 6.4 °F 15.8 °F 93% 29.58 in 1.5 mi NNW 9.2 mph - 0.01 in Snow Light Snow
11:48 PM 17.6 °F 7.3 °F 14.0 °F 86% 29.58 in 1.5 mi NNW 8.1 mph - 0.01 in Snow Light Snow